Location: Meanaryar
(48.4161°N, 4.7315°W)
Time: 14:34:11
(UTC+00:00)

Cosmos 1092 Rocket - Pass Details

Date: 20 January 2021
Orbit: 954 x 995 km, 83.0° (Epoch: 01 March)

Event Time Altitude Azimuth Distance (km) Brightness Sun altitude
Rises 05:03:40 0° 358° (N) 3,645 7.0 -29.1°
Reaches altitude 10° 05:06:38 10° 11° (N) 2,695 6.4 -28.6°
Maximum altitude 05:11:42 26° 66° (ENE) 1,783 5.9 -27.7°
Drops below altitude 10° 05:16:46 10° 122° (ESE) 2,689 7.0 -26.9°
Sets 05:19:42 0° 135° (SE) 3,635 7.6 -26.4°
